This demonstration page uses our WeatherBlox Daily Observations layout. Learn more.

Left ArrowRight Arrow

34.02893, -84.19858

Hourly Observations for October 15, 2015

Temp ( °F °C ) Dew Point ( °F °C ) Humidity (%) Winds ( mph kmh ) Pressure ( in mb ) Visibility ( mi km ) Precip ( " mm )
12:53 am 00:53 Clear 53 11.7 52 11.1 96 96 Calm 30.05 1018 10 16 0.00 0.00
1:53 am 01:53 Clear 51 10.6 50 10 96 96 Calm 30.06 1018 10 16 0.00 0.00
2:53 am 02:53 Clear 52 11.1 51 10.6 97 97 SSE 3 6 30.05 1018 10 16 0.00 0.00
3:53 am 03:53 Clear 51 10.6 50 10 96 96 Calm 30.06 1018 10 16 0.00 0.00
4:53 am 04:53 Clear 50 10 50 10 100 100 Calm 30.06 1018 10 16 0.00 0.00
5:53 am 05:53 Clear 50 10 49 9.4 96 96 Calm 30.08 1019 10 16 0.00 0.00
6:53 am 06:53 Clear 49 9.4 49 9.4 100 100 Calm 30.10 1019 10 16 0.00 0.00
7:53 am 07:53 Sunny 49 9.4 49 9.4 100 100 Calm 30.13 1020 10 16 0.00 0.00
8:53 am 08:53 Sunny 57 13.9 54 12.2 90 90 Calm 30.14 1021 10 16 0.00 0.00
9:53 am 09:53 Sunny 64 17.8 54 12.2 70 70 Calm 30.16 1021 10 16 0.00 0.00
10:53 am 10:53 Sunny 70 21.1 51 10.6 51 51 NNE 3 6 30.17 1022 10 16 0.00 0.00
11:53 am 11:53 Sunny 74 23.3 49 9.4 41 41 Calm 30.16 1021 10 16 0.00 0.00
12:53 pm 12:53 Sunny 77 25 48 8.9 36 36 N 6 9 30.14 1021 10 16 0.00 0.00
1:53 pm 13:53 Sunny 78 25.6 46 7.8 32 32 VRB 5 7 30.11 1020 10 16 0.00 0.00
2:53 pm 14:53 Sunny 79 26.1 46 7.8 31 31 Calm 30.09 1019 10 16 0.00 0.00
3:53 pm 15:53 Sunny 80 26.7 46 7.8 30 30 Calm 30.07 1018 10 16 0.00 0.00
4:53 pm 16:53 Sunny 79 26.1 46 7.8 31 31 SSW 5 7 30.07 1018 10 16 0.00 0.00
5:53 pm 17:53 Sunny 79 26.1 47 8.3 32 32 VRB 5 7 30.07 1018 10 16 0.00 0.00
6:53 pm 18:53 Sunny 72 22.2 50 10 46 46 SW 5 7 30.08 1019 10 16 0.00 0.00
7:53 pm 19:53 Clear 64 17.8 53 11.7 68 68 Calm 30.11 1020 10 16 0.00 0.00
8:53 pm 20:53 Clear 60 15.6 55 12.8 84 84 SE 3 6 30.12 1020 10 16 0.00 0.00
9:53 pm 21:53 Clear 59 15 56 13.3 90 90 Calm 30.12 1020 10 16 0.00 0.00
10:53 pm 22:53 Clear 58 14.4 55 12.8 90 90 Calm 30.11 1020 10 16 0.00 0.00
11:53 pm 23:53 Clear 57 13.9 55 12.8 93 93 Calm 30.12 1020 10 16 0.00 0.00

Powered by AerisWeather